Theta_e
332 332 334 333 334 332 332 333 334 335 334 335 336 335 335 338 335 337 337 335 337 337 336 336 337 338 337 338 337 336 335 335 338 338 337 336 337 338 339 339 339 341 343 343 345 345 344 343 343 343 344 342 343 344 345 345 344 345 345 343 341 342 342 339 336 337 341 346 345 345 351 353 351 352 348 349 350 352 353 353 353 353 353 354 356
332 333 333 332 332 332 332 333 333 333 333 333 335 335 334 334 335 336 334 335 336 336 336 337 338 336 336 336 335 335 334 334 336 336 335 335 336 339 340 339 338 337 337 336 339 342 342 340 340 342 343 343 343 343 343 343 341 342 342 341 340 340 343 342 340 339 338 343 345 349 351 354 347 351 346 347 348 358 354 350 353 353 356 355 355
333 333 332 331 332 332 333 332 332 332 333 332 333 334 334 334 336 334 334 334 336 336 336 336 336 335 334 335 334 334 334 334 335 335 335 335 335 337 339 338 336 336 334 334 335 337 337 339 339 341 344 342 343 343 344 341 340 339 341 343 342 343 345 344 341 339 339 339 344 345 347 349 345 346 349 349 352 351 348 349 352 355 356 354 354
334 332 332 332 332 332 332 332 331 331 332 332 331 333 333 333 335 334 333 333 333 335 336 336 335 334 334 333 333 334 334 335 335 336 337 338 337 337 337 337 336 335 335 334 334 334 333 334 336 338 341 340 340 340 341 343 344 342 341 341 342 342 344 344 344 341 341 339 343 344 348 346 346 350 349 351 349 349 349 350 354 353 354 355 353
333 332 332 331 331 330 330 330 328 329 330 330 330 331 332 332 333 334 333 333 333 333 334 335 334 334 333 333 333 333 334 335 335 335 336 336 335 336 336 335 335 335 334 333 338 334 333 332 333 334 337 338 339 339 341 341 343 343 342 341 342 343 343 344 344 343 341 339 341 345 347 346 347 346 348 346 346 347 349 350 350 349 351 354 355
333 332 331 330 329 328 328 328 326 327 330 328 328 329 330 331 331 332 333 332 332 332 332 332 335 333 333 333 333 334 334 334 334 333 333 334 335 336 335 334 334 333 333 333 333 333 333 332 333 333 333 334 336 338 340 341 343 343 341 340 342 342 342 342 342 343 342 341 340 340 344 344 343 343 345 347 344 343 344 348 350 351 349 349 351
331 330 330 328 327 326 326 326 326 327 328 328 328 328 329 330 330 330 333 331 331 331 331 331 333 333 332 332 333 333 332 332 331 331 332 333 334 334 334 334 333 333 332 332 332 332 332 332 333 332 332 333 335 338 340 341 342 341 343 343 343 342 342 341 341 341 341 340 341 342 342 345 344 341 344 346 346 344 341 341 344 347 348 347 347
328 327 327 326 324 324 324 325 326 327 328 327 327 328 328 328 329 330 331 329 330 330 330 331 331 332 332 332 332 332 330 329 328 328 329 330 332 332 332 333 333 331 332 332 332 331 331 332 332 332 333 335 338 338 339 340 341 341 342 343 342 341 339 339 339 340 339 338 337 337 340 342 343 345 346 344 341 342 343 342 339 341 344 346 347
325 324 325 325 323 323 324 326 326 326 326 326 326 326 327 327 328 328 327 328 330 330 330 330 329 329 330 329 327 327 326 327 327 328 327 329 331 331 331 332 331 331 331 331 331 331 331 331 332 335 342 344 345 344 343 343 340 338 339 340 342 341 340 339 339 338 339 338 338 339 339 340 341 341 341 341 341 340 342 343 341 342 343 343 345
322 322 323 323 322 322 323 325 324 325 324 324 325 325 325 326 327 326 326 326 327 329 328 329 329 328 327 325 324 323 324 325 330 332 332 328 327 327 328 329 330 330 331 330 330 329 328 328 332 339 341 342 342 342 342 343 344 343 341 340 340 338 337 336 336 338 338 337 337 337 337 338 340 340 340 342 344 345 342 341 340 341 340 341 343
320 320 321 320 320 321 322 322 323 323 323 324 324 324 324 325 325 325 325 326 326 327 326 326 327 326 324 322 321 322 322 323 327 324 326 328 327 323 321 323 328 328 326 323 323 323 324 325 327 332 337 340 339 340 341 341 341 341 343 343 344 341 337 335 334 335 336 335 337 337 337 336 338 340 341 342 344 343 343 342 341 340 339 337 335
318 318 320 319 318 319 321 321 322 321 322 322 323 323 323 323 323 324 325 325 325 326 325 325 325 324 322 321 320 320 319 325 321 322 323 324 326 321 319 320 323 322 321 319 318 319 319 322 325 328 331 336 335 332 336 339 338 338 339 340 341 342 342 339 338 337 336 335 335 336 338 337 338 339 339 339 340 341 343 342 341 341 339 338 337
317 317 318 319 318 319 320 320 321 320 320 322 322 321 321 322 323 323 324 325 324 324 323 324 324 323 321 319 318 317 317 322 318 319 319 321 322 322 316 317 318 318 317 316 315 315 316 319 321 325 328 337 334 329 328 331 335 334 334 335 335 338 337 338 339 342 339 336 335 334 336 338 338 339 341 341 344 340 340 339 340 341 341 340 340
317 316 316 317 318 318 319 319 320 320 320 321 321 320 320 321 322 323 324 323 322 322 322 321 323 323 321 318 317 316 315 320 317 316 316 318 319 317 312 313 314 313 313 313 312 313 315 317 319 322 325 331 332 329 326 326 326 326 326 327 328 332 335 336 340 342 344 341 337 334 337 339 338 340 343 344 339 338 338 338 338 336 338 339 343
317 317 316 316 317 318 318 318 319 319 319 320 319 319 320 320 321 323 321 320 319 319 319 318 319 322 320 318 316 314 314 316 315 315 313 315 316 314 310 311 311 311 311 311 311 312 314 317 318 321 324 331 331 330 326 326 325 324 323 324 325 327 329 331 336 340 341 341 341 340 340 340 339 338 339 340 342 340 340 338 338 337 338 340 342
316 316 316 315 316 317 318 318 317 318 320 319 318 319 319 320 319 320 319 317 318 318 317 319 317 317 320 318 316 314 314 316 315 313 312 313 316 310 308 309 309 310 310 310 311 312 315 316 318 321 325 328 332 330 328 326 324 321 320 321 323 325 326 333 333 339 343 341 341 341 342 342 341 343 344 343 343 342 343 344 341 338 337 336 335
316 316 316 315 318 317 318 318 317 318 318 318 317 318 319 318 318 319 315 314 314 315 314 316 316 315 314 315 315 314 315 315 313 312 311 311 313 308 308 308 309 308 308 309 311 313 314 317 321 322 325 323 328 323 323 329 322 319 319 319 321 322 324 327 331 333 334 330 328 328 328 328 328 328 327 330 336 339 339 335 334 336 333 331 333
316 317 315 316 316 317 318 318 316 318 317 317 317 318 318 318 317 318 314 313 312 313 314 313 314 315 313 311 312 311 313 316 313 311 311 310 313 308 307 307 307 307 308 309 312 312 314 324 325 323 322 321 323 320 321 325 320 318 318 319 319 321 323 325 328 331 332 329 329 329 329 329 330 329 330 330 331 336 335 332 335 337 334 335 333
316 315 315 315 316 318 318 319 316 316 317 317 318 317 317 317 317 315 314 313 313 312 315 311 311 311 312 311 316 311 310 312 313 311 310 310 311 309 307 306 306 306 307 309 312 313 314 319 325 325 322 320 317 317 319 324 318 318 319 319 319 320 322 324 325 326 327 330 331 333 334 335 339 338 341 340 339 342 338 337 338 336 332 333 334
315 315 315 315 316 319 317 319 318 317 317 317 317 317 318 316 315 314 313 312 312 311 312 311 309 310 311 310 311 310 310 309 311 311 310 310 310 309 307 305 305 306 307 309 310 311 313 315 319 322 317 316 314 313 315 318 321 319 317 315 316 317 323 325 328 328 329 329 329 331 332 333 334 336 338 339 342 345 340 339 338 337 336 335 336
314 315 313 314 316 317 317 316 316 319 320 318 318 317 316 314 314 312 311 311 309 309 309 310 309 308 310 310 309 308 311 309 310 311 309 309 309 310 305 305 305 306 307 308 308 310 312 314 315 320 314 313 311 310 310 313 319 316 313 312 315 320 327 324 325 331 328 329 330 331 331 332 332 333 335 336 339 341 342 339 340 339 337 336 334
313 312 313 315 317 316 314 315 318 322 321 317 313 314 315 314 314 311 311 309 308 308 308 311 307 307 308 308 309 307 310 312 307 309 310 308 308 309 307 306 308 308 307 307 309 310 312 313 314 315 312 310 309 309 308 311 314 313 311 311 313 318 321 322 320 321 324 327 329 330 330 330 330 331 334 336 339 342 341 342 341 340 340 339 337
312 312 315 316 315 314 314 314 317 321 321 319 315 313 314 313 311 312 309 308 307 306 307 307 306 305 305 305 306 306 306 309 311 309 309 308 307 307 308 307 309 309 307 308 309 310 313 312 313 315 309 306 306 308 309 310 313 310 308 310 312 315 318 315 316 316 319 320 322 322 324 327 328 329 332 333 334 336 337 338 340 341 342 342 342
312 312 315 314 312 312 313 315 317 317 320 319 318 313 313 313 313 312 309 308 307 306 305 307 305 305 304 304 304 305 305 305 308 310 309 309 307 306 306 306 308 309 310 309 311 313 312 310 311 307 305 303 305 308 310 311 310 307 307 310 312 314 312 312 311 313 316 316 316 317 318 320 320 322 325 328 333 335 336 338 337 337 339 339 340
314 312 311 311 310 310 311 312 313 313 315 317 316 315 314 312 309 308 309 306 306 304 305 309 305 306 303 304 302 303 303 304 302 308 309 308 308 306 306 307 308 308 309 311 312 311 310 307 306 306 307 306 307 309 310 310 308 307 307 308 311 307 307 308 309 311 310 311 313 315 315 316 318 321 323 326 329 329 329 332 336 338 338 338 338
313 312 311 311 309 309 309 311 311 312 312 311 314 314 312 315 313 309 307 307 306 307 306 306 305 306 303 302 301 301 303 302 301 302 308 307 307 307 306 307 309 310 311 312 310 311 309 309 308 309 309 308 307 307 307 307 308 308 308 308 305 304 305 305 306 307 308 308 311 312 312 314 316 319 321 323 322 322 324 326 330 332 333 335 336
313 310 308 309 309 309 309 311 309 309 309 309 309 313 314 312 313 313 312 304 304 308 306 306 305 304 302 301 301 302 301 301 300 301 301 301 301 303 302 304 307 308 310 309 309 308 308 308 308 308 308 307 307 307 307 307 305 305 304 304 304 305 306 305 305 305 307 307 309 309 311 312 315 316 316 318 319 320 322 324 325 326 329 332 333
309 308 309 308 310 311 311 317 313 307 307 308 307 307 308 312 311 311 310 307 304 305 305 305 304 303 302 301 300 300 300 300 301 301 301 301 300 299 301 303 300 302 305 306 304 306 306 307 307 306 306 305 304 303 303 304 304 304 303 303 303 305 306 307 307 305 306 307 307 309 310 310 309 311 314 315 316 318 320 321 322 322 326 328 330
311 308 308 307 307 313 314 311 311 310 307 308 308 307 308 312 311 311 309 306 306 308 304 303 306 301 301 300 299 300 301 300 303 306 304 301 302 298 299 299 299 302 308 308 305 305 304 303 304 303 302 303 303 301 301 301 302 302 302 302 302 302 302 301 300 301 304 305 304 306 307 307 307 309 312 313 314 315 317 317 320 320 322 324 325
308 306 308 307 308 312 312 310 310 311 307 306 307 309 320 313 312 311 311 319 315 311 309 307 306 304 302 302 302 300 300 303 306 300 297 296 297 297 297 297 298 305 307 306 305 300 300 299 300 300 300 300 300 300 300 300 300 300 299 303 302 301 301 301 299 300 302 303 302 304 304 305 305 307 308 309 311 313 314 316 316 318 318 319 320
310 308 310 308 312 312 311 309 311 310 307 306 307 309 309 309 303 307 312 317 306 301 301 302 304 307 308 303 305 309 308 304 298 296 296 295 295 295 295 294 296 298 301 304 301 299 299 299 299 299 300 299 299 299 300 300 301 300 299 300 300 301 301 299 299 300 301 300 301 301 302 302 303 305 306 307 309 310 312 315 315 315 315 317 318
308 308 308 309 311 312 309 309 312 311 307 306 306 309 305 304 305 303 303 307 303 299 298 299 298 299 302 304 306 303 304 301 297 296 296 296 295 294 294 295 296 296 299 303 301 299 298 297 298 298 299 299 300 300 300 299 299 299 298 299 299 301 299 298 298 298 298 298 298 300 300 300 301 303 304 306 307 308 309 310 311 312 314 315 315
308 306 308 310 310 311 311 310 311 309 307 309 310 308 305 306 303 304 307 301 299 298 297 298 297 297 297 296 296 296 296 296 296 295 295 295 295 294 294 296 296 296 302 300 298 298 298 299 297 299 298 298 297 298 298 298 299 299 298 298 298 299 298 298 299 298 298 297 297 297 299 299 300 301 303 304 304 304 307 308 309 310 311 311 313
309 309 310 310 306 307 307 307 307 307 305 306 307 307 308 309 306 306 306 307 306 301 297 295 294 295 296 296 296 297 297 296 296 296 295 296 295 295 295 299 297 297 298 301 298 298 298 299 300 299 298 300 299 300 300 299 300 299 300 299 298 298 297 298 296 296 296 296 295 296 297 297 298 298 299 300 302 303 304 306 307 307 308 310 310
306 318 315 315 308 308 307 307 307 308 308 308 307 309 308 310 312 310 306 306 306 305 305 305 303 296 299 299 299 297 296 296 296 296 296 296 295 296 299 300 300 301 300 301 302 299 300 299 299 299 298 299 299 300 298 297 298 299 299 298 298 297 297 296 295 295 294 294 294 294 295 296 295 297 298 298 299 300 301 302 304 306 307 308 310
308 307 307 309 307 306 307 307 307 306 307 307 309 311 312 312 311 310 307 309 306 304 306 303 305 309 305 299 298 298 297 297 297 296 296 296 296 298 299 298 298 300 302 301 302 302 302 301 300 300 299 300 300 297 298 298 298 297 298 297 299 297 296 295 295 294 294 293 293 294 294 293 294 295 296 297 298 299 300 301 302 304 307 307 308
308 307 307 306 306 307 308 309 308 310 314 311 308 308 310 310 312 309 307 305 308 306 301 302 303 303 305 306 309 302 300 298 298 298 297 297 298 303 300 300 299 300 303 301 303 303 299 298 299 298 299 299 299 296 298 297 297 297 301 297 296 296 296 295 295 295 292 292 291 291 292 292 292 294 295 295 297 298 299 301 301 303 304 306 308
308 308 306 307 307 308 307 309 312 317 312 310 308 308 309 309 309 308 308 306 307 306 302 302 305 302 300 299 308 307 305 302 300 299 299 299 302 301 299 301 301 300 301 300 303 301 299 299 300 298 298 298 298 297 297 297 297 296 297 296 296 296 299 295 296 292 293 291 291 290 292 292 292 293 295 294 295 297 298 299 299 300 302 304 305
308 315 318 319 321 313 308 313 314 313 311 311 309 311 311 311 310 308 306 306 305 305 306 302 301 302 301 303 299 306 304 300 301 300 302 301 302 301 299 298 299 301 301 300 302 302 300 299 301 300 301 298 299 297 298 297 297 297 296 295 294 293 293 291 291 290 291 290 290 290 291 291 291 292 294 294 294 296 296 296 298 299 300 301 303
311 308 312 321 317 316 315 315 314 312 313 311 309 310 309 309 307 306 306 304 303 305 304 304 303 301 302 302 304 302 301 302 302 301 301 301 301 301 299 298 298 300 300 300 300 299 300 299 298 298 297 298 298 298 298 298 298 298 296 296 294 293 292 291 290 290 289 290 290 290 290 290 291 293 292 293 295 296 295 295 297 299 300 301 302
308 309 318 317 318 313 315 315 314 311 312 312 310 308 308 309 309 310 307 307 307 307 306 303 300 300 302 302 303 302 301 301 301 302 302 302 302 300 300 298 299 299 300 301 300 300 298 299 299 299 298 299 298 299 298 297 297 297 296 296 294 294 292 291 291 290 290 290 290 290 290 291 292 292 291 293 297 295 294 296 297 298 300 301 302
309 310 312 314 316 315 313 314 313 314 312 312 309 309 309 311 310 310 309 309 309 308 306 304 300 303 303 302 298 298 301 303 304 303 302 301 300 300 301 299 297 298 298 298 299 300 300 300 300 300 299 299 298 299 298 296 296 294 294 294 294 293 292 291 291 291 290 289 289 290 290 292 293 293 292 295 293 293 294 295 296 297 298 299 301
313 313 312 316 314 313 312 311 311 308 309 309 309 315 314 312 309 310 309 308 309 308 307 304 303 307 305 304 302 303 300 301 306 303 304 302 301 302 299 298 298 298 298 298 299 299 299 298 298 299 299 299 298 298 296 295 295 292 292 292 293 292 290 291 290 290 289 289 289 291 290 290 291 290 290 292 292 294 295 295 296 297 298 299 300
313 314 314 316 314 313 314 311 310 311 310 313 314 313 313 312 311 309 308 307 307 308 307 305 305 305 305 301 300 300 301 301 300 300 302 302 300 300 298 297 299 299 298 298 298 299 298 298 299 297 298 298 298 298 297 295 294 292 291 291 292 294 290 289 289 288 289 288 289 290 289 290 291 289 290 292 292 293 295 295 296 297 298 299 301
308 310 312 310 311 311 309 312 312 310 313 314 311 310 312 311 311 310 309 307 309 309 309 307 306 306 306 301 300 300 300 300 303 303 302 299 299 298 297 297 298 297 297 299 299 299 299 299 298 298 299 298 297 297 297 296 295 293 292 291 290 289 289 289 289 290 290 289 289 289 290 290 289 289 290 291 294 293 294 294 295 298 299 300 300
309 310 312 311 311 312 312 309 313 310 310 310 309 308 309 308 308 309 309 309 309 308 307 307 306 306 304 301 302 304 300 299 301 302 302 301 299 297 298 298 299 299 298 298 300 299 300 300 300 299 299 298 297 297 296 296 296 294 292 291 290 290 291 291 291 291 290 290 289 289 289 290 289 290 293 293 292 293 293 295 296 298 299 300 300
309 309 310 311 310 311 311 312 310 308 308 309 311 311 310 309 308 310 312 312 310 309 309 305 304 303 304 303 303 302 303 303 301 300 299 299 298 296 297 299 300 299 298 298 300 299 300 300 300 301 301 298 297 297 296 296 295 294 293 290 290 291 291 292 291 291 290 290 290 289 289 289 289 289 291 292 292 293 294 295 297 299 300 300 299
308 309 309 311 309 308 308 308 309 314 311 311 311 311 311 310 309 309 309 309 308 309 307 305 303 303 304 303 305 305 304 302 301 301 300 299 297 298 299 299 301 299 299 299 299 300 301 300 300 300 300 299 298 297 296 294 292 289 289 290 292 292 291 291 291 290 290 290 289 289 289 288 289 289 291 292 292 294 294 295 298 299 300 299 300
309 309 308 308 308 309 309 310 311 309 308 308 310 310 310 309 308 307 308 307 307 308 305 304 303 303 303 303 304 305 305 305 299 298 298 299 298 298 299 300 301 299 300 299 299 299 299 299 301 300 298 297 297 296 295 294 292 291 291 290 292 292 291 291 290 289 289 289 289 288 288 288 289 290 292 293 294 294 295 297 299 300 299 299 299
309 310 309 310 309 309 309 309 309 307 309 310 309 308 309 308 307 307 307 308 306 306 305 305 304 303 302 304 305 303 303 302 300 298 297 297 297 299 299 298 298 299 299 298 299 299 298 298 299 299 298 297 296 295 294 294 293 293 293 293 293 291 290 290 290 289 289 288 288 288 288 289 290 291 291 292 293 295 296 296 297 297 297 297 298
311 310 310 309 308 309 308 308 307 307 307 309 308 307 307 306 305 306 307 306 305 306 306 303 302 302 302 303 305 303 302 299 298 297 297 297 298 299 300 299 300 298 298 298 298 298 298 298 299 300 299 299 297 295 293 292 292 293 294 293 291 289 288 287 287 288 288 288 289 289 289 290 291 292 294 293 294 294 296 296 296 296 296 297 298
Wind_Speed
6 6 5 6 5 6 6 5 6 5 5 5 5 5 5 5 5 5 4 6 5 6 6 6 6 5 6 6 6 6 6 6 6 6 6 6 5 5 5 4 4 4 4 5 4 3 3 4 6 6 4 4 4 4 4 3 5 6 4 4 6 7 8 9 10 11 7 5 5 5 4 4 4 5 5 4 3 2 3 4 4 4 5 7 8
5 5 5 5 6 6 6 5 6 7 7 6 6 6 6 6 5 5 5 6 5 6 6 5 5 6 6 6 6 6 6 7 7 6 6 6 5 4 4 5 4 5 5 6 6 6 5 5 6 6 4 4 4 5 3 3 6 7 6 7 8 9 8 8 9 8 10 3 4 3 4 4 6 3 5 6 5 4 5 4 4 4 5 6 8
5 5 5 6 6 6 6 7 8 8 8 7 8 8 6 6 6 6 6 6 6 6 6 6 6 6 6 6 6 6 6 7 7 7 7 5 5 5 5 4 4 5 6 6 6 6 5 5 6 6 5 4 5 5 2 5 7 7 7 6 7 8 8 9 8 7 9 9 5 4 4 5 6 5 5 4 4 5 6 6 5 4 4 5 7
6 6 6 6 7 7 8 8 9 9 8 8 9 8 7 6 6 6 6 6 7 7 6 6 5 6 5 6 6 7 7 6 7 7 8 7 6 6 6 6 5 4 5 5 6 6 6 6 5 6 6 5 6 6 5 4 6 6 6 6 6 8 7 6 8 7 6 9 5 4 2 4 5 2 2 3 3 3 4 4 4 5 5 5 6
6 6 7 8 9 9 10 9 9 8 7 7 8 7 7 7 6 7 6 7 6 6 6 6 5 5 6 6 7 7 6 7 7 8 8 8 7 6 6 5 5 6 5 5 6 6 6 6 7 6 6 6 6 6 6 4 5 5 6 5 7 7 6 6 7 7 9 10 7 4 3 4 3 2 2 4 3 4 3 5 5 5 5 5 5
7 7 7 8 8 9 8 8 8 7 7 7 8 7 7 7 7 7 6 6 7 6 6 6 6 6 6 6 6 7 7 8 8 8 8 8 8 7 6 6 6 6 6 5 4 5 5 6 7 6 6 6 6 6 6 6 5 5 6 6 6 6 6 7 7 7 8 8 7 7 4 5 3 3 3 4 4 4 4 4 4 4 5 5 6
7 7 8 8 7 7 7 7 7 7 7 7 7 7 8 8 7 7 7 6 6 7 7 7 7 5 5 6 7 7 7 7 7 8 8 8 7 7 8 8 7 7 6 6 5 5 5 5 6 6 6 7 6 5 5 5 5 6 6 6 6 6 7 6 7 8 8 9 7 7 6 5 4 6 4 5 5 5 4 3 5 3 4 6 7
7 6 6 6 6 6 5 5 6 6 6 6 6 7 7 7 6 7 7 7 7 7 7 7 6 5 5 6 6 6 7 7 8 8 8 8 8 8 7 7 8 8 8 7 6 6 6 6 5 5 6 6 4 4 5 5 5 6 5 4 5 6 6 5 6 7 8 7 7 7 5 6 4 5 3 2 3 5 6 6 7 6 7 5 6
6 6 6 6 6 6 6 5 5 6 6 6 6 7 6 6 6 6 6 7 7 7 7 7 7 6 7 8 8 7 8 8 8 9 9 8 8 7 7 7 7 7 8 8 7 6 6 7 6 6 8 13 15 12 11 10 6 6 5 3 4 6 6 5 6 6 6 6 7 6 7 6 6 6 5 6 8 9 4 6 8 8 6 5 6
6 5 4 4 4 4 5 4 5 5 6 7 7 7 7 7 7 6 6 7 7 6 7 7 7 7 8 8 8 8 9 8 16 22 19 12 8 8 8 8 8 7 7 7 8 8 8 8 9 16 15 15 14 14 13 13 12 8 6 5 5 5 5 5 5 5 6 7 7 6 8 8 6 6 7 7 8 6 4 6 8 7 4 6 6
4 4 3 3 4 4 4 4 4 5 5 5 5 6 6 6 6 6 6 6 7 6 6 8 7 8 8 8 9 8 8 11 22 20 20 22 13 8 8 8 8 8 9 9 9 10 10 9 8 11 12 11 9 15 15 15 14 13 13 13 9 5 6 6 6 5 6 7 7 7 7 9 8 6 7 7 6 8 7 6 6 4 6 7 8
5 5 3 3 4 4 4 4 4 5 4 5 4 5 5 6 6 6 6 7 6 6 7 7 6 5 6 7 8 8 8 17 20 21 21 20 18 10 7 8 7 7 8 9 9 9 10 10 9 7 8 9 6 8 12 16 17 17 16 14 13 11 9 7 7 6 6 6 7 7 7 7 8 5 7 6 7 6 7 6 7 7 8 8 6
4 5 5 4 5 5 4 4 4 5 5 5 4 5 5 6 7 7 7 7 6 7 7 7 6 6 7 7 8 8 8 18 19 21 20 19 20 15 8 8 8 9 9 9 9 9 9 10 10 9 8 14 8 8 8 10 14 17 15 13 12 13 11 10 9 8 7 6 7 7 7 7 7 7 6 7 4 7 6 7 7 7 7 7 7
4 4 5 5 5 5 4 4 5 5 5 5 5 5 6 7 6 6 6 7 7 7 8 9 7 6 6 6 6 7 9 16 19 21 21 20 19 15 9 9 9 9 9 9 9 9 9 9 9 9 9 7 5 8 9 9 9 9 9 8 6 9 12 13 12 10 9 7 6 7 7 5 7 7 7 4 4 6 5 7 7 7 7 7 7
5 4 5 5 5 5 5 4 5 5 5 5 6 6 6 7 7 7 7 7 7 8 7 8 8 7 6 6 5 6 8 16 18 21 21 19 18 14 8 8 8 8 7 8 8 9 9 9 9 9 10 6 8 15 12 11 10 9 8 8 8 6 7 7 7 6 5 4 5 6 7 6 7 9 9 10 9 8 6 8 7 7 9 11 9
5 4 5 5 6 5 4 4 5 5 5 5 6 6 6 7 7 6 7 7 6 6 7 6 7 6 5 5 5 4 7 15 17 20 20 19 17 8 7 7 7 8 8 8 8 7 7 9 8 9 9 10 15 23 20 14 9 9 9 9 8 8 7 7 11 11 6 3 3 4 5 7 8 7 7 7 5 4 8 8 3 5 9 8 8
4 4 5 5 5 5 4 4 4 5 5 5 5 5 5 6 5 5 6 6 6 6 6 5 5 6 8 7 5 5 3 12 16 16 18 20 14 7 7 7 7 8 9 9 7 6 7 9 9 8 9 9 19 22 21 18 8 8 8 8 8 8 9 8 10 11 9 8 10 11 11 12 13 13 12 13 10 7 4 4 9 6 7 7 9
5 4 5 5 5 5 4 3 3 4 4 4 4 4 4 3 4 3 4 4 5 5 4 4 4 4 4 4 6 6 6 9 14 14 15 19 16 8 7 7 7 8 9 8 7 7 9 17 14 9 10 13 23 20 18 12 7 7 7 8 9 9 9 8 7 7 9 9 10 11 11 11 12 12 12 12 11 8 5 7 6 5 8 8 9
5 5 5 5 5 4 4 3 3 3 4 4 4 3 3 3 2 3 3 3 3 3 4 4 3 2 3 3 11 7 3 8 11 11 15 16 14 8 8 7 8 8 9 8 8 7 8 10 16 15 16 17 20 18 18 13 5 6 7 7 8 9 9 10 9 9 8 8 7 7 7 7 6 6 7 12 12 9 7 8 5 5 7 8 9
5 5 5 5 5 5 4 3 3 3 4 3 3 3 2 2 3 4 3 3 3 3 3 4 4 3 3 3 5 6 5 5 10 12 14 14 17 11 7 7 8 9 8 9 8 8 8 8 11 16 19 18 16 16 17 20 10 7 7 8 9 11 9 8 9 8 7 7 7 6 7 7 7 6 6 7 7 5 6 7 7 7 7 8 8
4 4 5 5 5 5 4 4 3 3 3 3 2 2 2 3 3 3 3 3 3 4 4 4 5 5 5 4 5 6 7 7 8 13 12 14 16 15 7 8 7 8 7 8 7 7 7 8 7 17 16 15 13 14 17 16 17 9 10 8 9 12 11 7 10 13 7 8 6 6 6 6 6 6 6 6 6 5 4 6 7 7 8 8 8
4 4 5 4 5 4 4 4 2 4 3 3 3 2 2 2 2 2 2 3 3 4 4 4 5 5 5 5 5 5 7 12 7 12 13 14 14 17 10 8 9 8 8 7 7 6 7 8 7 14 14 15 13 12 16 14 18 12 13 15 16 18 10 8 8 8 8 7 6 5 5 5 5 6 6 6 5 6 5 4 6 7 8 8 8
4 4 4 4 4 5 5 5 3 2 2 1 2 1 0 1 2 2 2 3 3 4 4 4 4 5 5 5 5 5 5 6 13 10 12 13 14 14 16 11 14 9 6 7 7 6 6 8 9 16 13 13 14 12 15 16 14 12 18 17 16 18 14 9 9 7 7 7 8 8 9 9 8 8 7 7 7 6 6 5 4 5 7 8 10
4 4 3 4 4 5 5 6 4 2 0 1 1 1 1 0 1 1 2 2 3 4 5 5 5 4 5 6 6 6 5 5 8 12 10 13 13 15 16 17 15 10 8 5 6 7 6 7 10 12 13 13 13 12 13 16 12 16 17 18 17 16 11 10 9 8 7 7 8 7 8 8 8 9 10 10 9 8 7 6 6 5 5 5 7
3 4 3 3 4 4 4 4 3 2 1 0 0 1 2 1 1 2 2 2 3 3 5 3 5 5 5 5 6 6 6 6 5 8 12 11 12 14 16 17 16 15 8 7 9 8 10 11 13 11 12 14 14 13 12 15 17 16 18 19 17 10 11 10 10 8 8 9 8 7 7 8 8 8 9 10 10 9 10 9 8 6 5 5 6
3 3 3 3 4 3 3 2 2 3 3 3 2 2 2 1 1 0 1 2 2 3 3 3 3 4 4 5 6 6 6 6 6 6 7 9 8 12 15 14 16 16 12 8 14 12 12 10 13 12 13 14 12 11 11 12 17 19 19 19 11 11 10 10 10 10 9 9 9 8 8 8 9 9 9 8 9 10 10 9 9 8 7 6 5
3 3 3 3 4 3 2 1 3 3 4 3 3 2 2 2 0 0 0 1 2 1 2 2 3 3 4 5 5 6 6 6 6 6 6 6 6 6 7 8 12 10 7 6 9 7 11 12 9 11 10 16 16 15 14 15 13 12 10 10 9 9 8 9 9 9 9 9 9 8 8 8 8 9 10 9 9 8 9 9 9 9 9 7 5
2 2 3 3 3 3 3 4 3 4 4 3 4 6 5 2 1 1 1 1 2 2 0 2 3 3 5 5 5 6 6 6 6 6 7 6 6 6 6 6 7 6 7 6 8 9 8 8 8 7 7 7 9 9 9 9 11 11 10 9 9 10 12 15 12 7 8 7 8 8 8 9 9 10 9 8 8 8 9 9 9 10 9 8 3
2 2 2 3 3 2 3 3 4 5 5 5 5 3 3 5 2 2 3 3 3 4 3 2 3 3 2 4 4 6 6 6 7 8 8 7 3 5 6 6 6 6 10 11 7 6 6 6 6 7 8 9 9 9 9 8 9 9 10 10 9 10 10 11 11 10 9 8 9 9 10 9 9 9 9 8 9 9 9 9 8 9 9 7 6
1 2 2 2 3 3 3 5 4 4 4 4 4 5 6 6 2 1 2 4 7 6 5 3 3 2 4 4 2 3 6 7 11 14 12 11 8 8 7 8 7 7 9 11 9 5 6 7 8 8 9 7 9 9 10 8 8 9 9 12 11 11 11 11 11 10 10 10 9 9 9 9 8 8 8 9 9 8 9 9 9 9 9 9 7
1 2 2 2 2 2 3 4 5 4 3 3 2 3 5 6 5 3 5 3 6 6 5 8 7 6 2 4 7 8 9 9 10 12 12 9 7 7 8 8 9 8 8 4 5 6 6 7 7 7 8 7 8 7 8 8 8 8 8 8 8 10 12 10 11 10 11 10 10 9 10 10 10 9 9 10 9 9 9 8 7 8 8 9 8
2 3 2 1 1 2 3 3 4 3 3 3 2 1 2 4 6 7 4 4 7 7 8 7 9 9 7 4 4 7 11 13 14 13 10 7 7 6 7 7 8 8 9 6 4 5 5 5 6 6 6 7 7 7 7 7 6 6 6 8 8 9 10 10 11 9 10 10 10 10 10 11 10 11 10 10 9 8 9 9 9 9 8 7 8
1 2 1 1 2 3 3 3 4 2 2 3 3 2 1 2 3 5 5 6 3 6 6 8 9 10 11 11 7 6 9 10 12 7 7 8 8 7 6 5 6 8 7 4 4 5 5 5 5 4 4 5 5 5 5 5 5 6 6 7 8 9 9 9 10 10 10 10 10 10 10 10 11 11 11 10 10 9 9 8 8 8 8 8 9
2 1 1 1 2 3 4 4 3 4 3 2 3 3 2 1 3 1 3 6 2 2 2 7 10 10 11 10 10 12 12 13 10 9 7 8 8 9 6 3 5 3 4 2 3 3 3 3 3 3 3 3 4 5 5 5 5 6 6 7 7 7 9 9 9 10 10 10 10 10 10 10 11 10 10 10 10 9 9 9 8 8 8 7 8
2 4 5 3 1 4 4 3 4 3 3 3 3 3 3 1 1 1 3 3 4 4 4 2 6 7 7 8 12 13 12 10 10 10 8 8 9 9 7 7 5 3 4 2 1 1 2 2 2 2 2 3 4 4 5 5 6 6 6 6 7 8 9 9 9 9 9 9 9 9 10 10 10 10 10 9 9 9 10 10 10 9 8 8 8
3 3 4 4 3 3 4 3 3 2 3 3 4 3 2 1 1 1 1 1 2 3 2 1 2 5 7 8 8 8 10 11 11 10 9 8 7 6 5 5 5 5 3 3 2 2 2 2 2 2 2 2 3 4 5 5 5 5 5 6 7 7 8 8 9 9 9 8 8 10 10 9 9 10 9 9 9 10 10 10 10 10 9 8 8
3 4 5 5 4 3 5 3 2 1 2 2 3 3 2 1 0 1 1 2 1 1 1 1 1 4 4 4 6 8 9 11 12 13 12 9 8 5 4 3 3 4 4 5 3 3 4 4 3 3 2 2 2 2 4 5 4 5 6 6 6 7 7 7 9 8 8 9 8 8 8 9 9 10 10 10 10 9 9 10 10 11 10 12 11
3 4 5 4 4 2 4 2 1 0 1 1 2 2 2 1 0 0 0 1 1 0 1 1 1 0 2 3 5 3 3 8 11 11 9 9 5 5 5 6 5 5 6 6 5 5 4 5 6 5 5 6 5 5 3 5 5 5 5 5 6 7 11 8 9 8 8 7 8 8 8 8 8 8 9 9 9 10 10 10 10 10 11 11 10
2 3 6 8 5 1 2 1 0 0 0 0 1 1 1 0 0 1 0 1 2 1 2 2 1 0 0 1 1 2 3 4 4 3 4 5 5 5 4 5 6 6 6 7 6 6 5 5 5 4 5 6 6 5 4 5 5 5 5 4 5 5 7 6 7 7 7 8 8 7 7 8 8 7 8 8 8 9 9 10 10 10 10 10 10
3 3 4 7 4 1 2 2 1 0 1 1 0 0 0 0 1 1 1 2 4 3 2 3 2 2 2 1 0 0 3 2 1 1 2 3 3 4 3 4 5 5 5 5 5 5 5 5 4 5 5 5 5 6 5 5 5 4 4 5 4 5 6 6 6 7 7 7 7 8 7 8 8 8 6 6 8 8 9 9 9 10 10 10 10
3 2 2 4 3 3 3 2 2 2 3 2 1 1 1 1 2 1 1 2 2 2 0 4 5 4 2 2 4 2 3 1 1 1 1 2 2 3 3 3 3 3 4 4 4 4 4 5 5 5 5 5 5 5 4 5 4 4 4 4 4 5 5 5 5 6 6 7 7 8 7 8 7 7 8 9 10 9 8 8 8 8 8 9 9
2 3 2 3 2 3 3 3 3 3 4 3 2 3 3 3 3 3 3 3 2 2 0 3 6 5 4 5 5 4 2 0 0 1 1 2 2 3 3 3 2 2 3 3 3 3 3 3 4 4 4 4 5 4 4 4 4 4 4 3 4 4 5 5 5 5 6 6 7 7 7 8 9 8 8 9 8 8 8 8 8 8 8 8 8
2 2 1 3 3 6 4 5 4 4 4 4 5 5 4 4 4 4 4 3 3 2 0 2 5 4 3 4 4 3 1 0 1 0 0 1 1 2 2 3 3 2 1 2 2 2 2 3 4 4 4 4 4 3 4 4 3 4 4 4 4 4 5 5 5 6 6 7 8 8 9 8 8 7 7 8 8 8 8 8 8 9 9 9 8
2 1 0 2 3 4 4 5 5 5 5 5 6 4 4 4 6 5 6 5 4 3 2 3 3 3 2 2 2 1 1 1 1 1 1 1 1 2 3 3 2 2 3 2 3 2 2 3 4 5 4 4 4 4 4 4 3 4 4 4 5 5 6 6 7 7 7 7 8 9 8 9 10 8 8 8 7 9 9 9 8 9 9 9 8
3 2 1 2 3 4 6 6 6 6 5 4 5 6 5 5 5 6 5 6 4 4 3 3 3 3 2 4 3 3 2 1 1 1 0 0 1 2 2 3 2 1 2 3 3 3 3 3 3 3 3 5 4 4 4 3 3 3 4 4 4 5 5 6 6 7 7 9 9 9 9 9 8 8 8 8 9 8 9 8 8 10 9 8 8
3 3 1 2 3 4 5 6 6 6 6 6 6 5 5 5 5 4 4 6 6 5 4 3 3 3 4 5 4 2 3 1 1 1 0 1 2 2 2 1 2 2 2 3 3 3 3 4 4 4 3 5 3 3 2 2 3 3 3 3 3 3 5 6 6 8 9 9 9 9 9 9 9 9 11 9 8 8 8 9 8 8 7 7 8
3 3 3 3 3 4 5 6 7 7 7 6 5 5 5 5 3 3 4 5 5 4 4 4 4 4 5 4 4 3 2 2 2 1 2 2 3 2 2 1 2 3 3 4 4 4 3 3 3 3 3 5 3 2 1 3 3 3 2 1 1 4 4 7 7 6 8 9 8 8 8 8 9 9 10 10 9 9 9 9 8 9 8 7 8
4 5 4 4 4 4 6 6 7 7 7 5 4 4 4 3 2 3 4 4 3 3 3 3 5 5 5 5 4 3 3 3 2 3 3 2 3 2 1 1 2 3 3 4 4 4 3 4 3 3 4 4 3 2 1 2 3 2 1 3 4 7 11 12 7 7 6 7 8 8 8 8 7 8 8 9 9 8 8 9 9 8 6 7 8
4 5 5 5 5 6 6 7 7 7 6 5 4 4 4 2 3 4 4 4 3 2 2 4 3 5 5 5 4 4 3 3 3 3 2 1 1 1 1 1 1 3 3 3 4 3 4 4 3 3 4 3 3 2 2 2 2 1 1 2 8 16 16 17 11 9 12 10 8 8 8 7 7 8 9 9 8 8 8 9 8 7 7 7 8
4 4 4 5 5 6 6 6 6 6 5 4 5 5 3 2 4 4 5 4 3 2 2 2 3 6 6 5 4 4 3 3 3 3 1 1 2 1 0 1 3 3 3 3 3 3 3 3 2 3 3 3 3 3 3 2 2 1 2 6 13 14 15 16 14 16 13 9 8 6 6 7 7 7 7 7 7 8 8 8 9 9 7 8 8
3 4 4 5 6 6 6 6 7 6 5 5 5 5 3 4 5 4 4 5 4 4 3 1 5 6 5 5 5 5 3 4 3 3 2 2 2 1 0 1 2 3 3 2 3 3 3 2 2 3 3 3 2 3 3 4 2 2 7 11 12 13 14 14 11 15 18 13 8 6 6 7 7 7 7 7 8 8 9 10 9 8 7 7 7
Wind_Direction
28 17 13 11 10 9 9 13 5 1 6 8 10 358 352 352 342 333 336 340 330 333 332 329 330 333 330 331 331 325 329 329 326 324 330 329 327 324 325 340 344 334 327 318 312 293 278 273 283 285 282 275 265 258 238 272 306 276 239 227 242 238 234 233 241 254 257 221 251 264 247 228 238 210 186 190 194 210 187 187 183 190 189 190 197
26 10 8 7 10 7 7 6 1 6 8 2 2 355 351 348 337 339 341 326 329 327 326 324 325 332 336 334 332 326 328 329 327 332 330 331 334 337 340 345 352 348 350 345 338 331 310 301 294 295 287 269 270 261 225 209 242 257 240 221 231 236 236 245 236 242 263 249 247 222 235 225 246 218 203 192 201 188 192 202 188 179 189 183 186
19 13 10 14 13 10 10 6 5 7 5 1 357 351 347 346 343 341 336 329 325 324 322 321 322 326 332 330 331 331 333 334 335 337 335 332 336 342 346 351 350 346 346 339 334 334 330 310 302 303 301 285 278 273 254 195 240 254 254 236 240 249 245 237 244 248 257 269 251 254 222 232 234 241 244 254 230 202 196 207 195 200 195 189 193
15 13 14 21 20 19 15 12 15 10 10 2 359 349 343 342 337 340 335 330 331 326 323 324 323 326 325 331 335 341 351 357 358 1 351 341 346 346 347 347 342 338 333 329 328 333 332 330 322 317 310 293 285 286 275 233 228 242 254 249 245 251 252 240 237 244 255 264 259 241 225 221 254 253 239 263 249 232 219 217 216 214 196 198 206
20 22 25 28 24 20 16 15 12 7 8 2 355 347 342 338 337 337 333 334 332 331 330 328 328 326 332 341 352 360 6 7 6 1 353 348 348 346 343 339 333 329 325 322 324 323 322 324 317 320 320 309 298 288 281 260 240 244 248 243 256 253 251 248 241 237 246 252 266 259 252 248 242 242 224 242 270 274 268 234 226 232 218 210 213
31 34 33 34 28 22 13 10 2 356 358 358 351 346 342 340 336 333 334 332 329 332 331 331 333 337 348 5 14 19 17 13 7 1 353 347 342 339 333 330 329 327 324 322 317 313 311 311 313 314 315 310 300 292 288 280 266 247 251 253 248 252 261 257 255 252 245 251 253 264 243 243 254 223 215 217 249 269 276 257 248 236 221 228 227
38 37 34 34 25 16 7 359 355 353 353 352 348 347 345 341 339 339 336 337 336 339 339 338 341 354 13 29 36 27 21 18 10 1 351 345 338 333 329 328 328 326 321 319 316 313 308 304 307 310 307 304 302 298 291 293 289 282 258 257 256 253 250 252 257 257 256 259 261 252 256 238 226 254 213 199 219 219 235 278 270 251 234 222 228
42 36 34 34 22 9 357 345 352 347 349 345 344 344 343 342 343 342 344 347 347 346 347 349 349 8 30 42 36 30 20 18 12 5 355 342 339 331 327 327 325 321 320 321 325 325 321 316 305 305 295 287 303 320 322 305 291 284 277 253 252 263 260 249 249 254 257 256 258 270 255 256 250 244 242 184 239 244 219 218 243 248 245 243 236
40 33 31 25 12 2 351 349 349 346 347 346 347 345 342 341 344 348 352 353 353 353 358 2 9 22 47 46 37 27 24 16 15 8 359 348 344 336 334 329 325 320 321 327 331 337 338 337 331 318 341 355 350 349 349 347 329 309 299 278 263 253 264 257 251 252 249 249 251 246 257 249 239 244 239 224 225 236 207 195 229 238 234 243 250
38 31 28 13 353 346 342 342 341 339 347 345 343 341 342 344 351 352 357 357 0 3 9 14 24 44 58 47 40 34 26 19 14 12 8 1 357 352 345 343 337 333 334 341 346 347 345 341 335 340 349 355 357 357 355 352 352 346 321 296 271 271 268 277 274 271 266 257 256 259 258 252 245 236 242 236 234 240 215 201 226 236 219 247 263
36 28 13 356 346 338 342 340 336 343 336 334 334 340 341 343 350 353 354 0 5 8 14 24 41 53 54 50 43 35 27 17 15 13 8 3 1 359 348 343 342 354 359 355 350 344 341 338 332 336 338 354 5 4 356 356 1 355 349 341 334 303 271 261 255 257 267 270 270 254 247 253 252 246 251 255 248 244 236 228 232 215 212 222 244
33 13 353 335 352 347 347 336 337 340 340 339 337 340 343 348 356 356 358 3 7 10 24 33 45 56 57 55 48 39 31 21 18 15 8 3 359 357 347 343 343 355 356 354 349 344 339 336 333 332 332 346 11 8 357 0 360 354 354 351 341 332 310 288 287 281 259 262 266 259 259 255 259 253 252 250 251 248 241 236 237 226 224 231 234
24 13 358 346 343 345 348 342 333 342 348 345 347 354 357 1 1 1 6 3 9 18 18 30 50 62 53 54 50 37 33 23 24 18 10 4 360 357 350 346 348 353 354 353 347 342 336 335 334 333 329 344 23 13 2 354 351 347 347 348 346 339 331 309 280 266 268 251 253 262 259 278 277 261 241 252 256 247 244 238 237 236 233 236 237
6 359 355 352 343 338 339 343 339 346 353 356 2 7 8 9 3 3 12 15 22 21 21 24 33 67 61 56 50 37 28 24 24 20 14 6 5 4 350 349 352 351 351 349 342 336 330 329 330 326 325 337 6 12 354 348 345 340 337 335 330 332 330 322 319 295 263 248 242 253 265 256 263 278 281 258 229 249 248 251 246 256 271 257 264
358 347 346 341 344 338 340 343 344 358 1 6 12 16 14 16 16 17 20 20 20 21 17 26 28 54 63 54 58 43 28 26 24 20 13 6 7 5 350 350 348 345 342 341 333 326 324 323 320 318 319 327 354 6 357 346 340 334 329 324 321 317 313 311 310 315 313 287 260 259 273 270 253 257 261 274 253 244 234 246 244 223 245 260 272
347 338 338 337 337 336 341 339 348 4 11 14 24 19 23 25 24 22 27 20 18 18 17 23 29 29 53 51 41 35 25 28 27 20 9 1 6 1 350 348 341 340 338 336 331 320 323 320 314 319 327 338 344 355 347 340 335 332 326 319 316 311 301 298 296 296 298 283 262 261 258 263 267 262 258 258 269 223 247 256 263 207 233 241 251
332 325 329 331 333 335 337 335 355 15 16 26 27 28 32 29 25 25 30 25 18 19 18 16 28 35 31 26 21 0 345 27 29 21 9 360 2 357 348 342 341 343 341 334 324 329 325 323 328 333 347 339 345 344 336 334 331 329 319 315 311 311 308 308 308 303 297 302 302 287 278 277 276 273 268 263 252 251 239 229 237 227 235 238 245
315 318 320 328 330 331 326 331 12 25 32 32 31 35 38 33 29 16 32 23 21 6 13 9 22 40 41 15 22 11 346 14 27 19 11 359 0 354 342 341 342 341 337 336 337 339 331 351 347 354 356 349 346 340 336 339 334 324 320 320 322 318 310 313 310 308 304 297 293 292 290 283 278 276 273 269 260 235 212 235 243 213 237 238 245
318 317 315 321 325 325 313 327 35 41 47 36 33 39 34 38 17 12 16 21 17 352 15 8 356 13 29 22 18 9 333 4 22 23 10 358 356 345 345 340 344 341 339 341 346 339 326 340 349 1 6 356 357 359 2 11 342 340 327 328 330 323 309 306 304 308 315 320 324 324 308 296 287 279 277 273 269 244 209 228 236 205 227 244 250
305 299 320 330 328 322 318 346 39 62 65 52 42 31 11 20 14 21 12 11 4 349 354 0 359 349 351 14 359 351 355 1 12 18 7 355 353 354 340 343 345 339 335 336 335 327 329 341 343 4 9 1 2 3 10 8 12 23 7 1 344 329 314 311 309 301 305 312 306 305 296 295 291 286 283 284 280 252 222 220 218 219 222 230 237
314 323 339 347 339 332 327 7 58 80 79 87 68 38 8 9 15 22 16 359 4 357 1 360 1 353 355 5 5 354 3 10 4 10 4 355 349 353 343 344 337 333 324 325 321 320 334 344 327 6 5 359 3 8 14 12 17 23 17 359 330 320 345 358 347 347 324 315 305 302 298 295 296 294 292 289 280 274 238 220 222 213 220 228 233
320 349 359 349 338 342 339 354 51 100 88 89 82 50 1 3 11 24 360 10 10 10 359 360 359 357 1 4 7 354 353 6 3 4 0 353 349 346 352 339 340 333 327 318 320 325 335 352 350 7 2 0 2 14 17 12 19 23 6 353 353 356 5 7 2 354 349 345 323 309 299 293 311 314 312 306 298 299 289 250 222 220 223 225 227
334 1 4 351 341 348 355 10 24 92 107 104 130 129 314 7 356 10 13 8 17 10 3 356 360 2 3 358 354 344 340 342 358 359 354 351 348 345 343 342 340 345 324 316 321 320 347 356 2 3 2 4 0 9 23 13 22 15 6 2 5 6 12 12 2 353 355 354 3 6 359 356 352 350 336 327 315 307 303 288 268 238 236 237 237
352 19 4 340 342 5 5 27 35 41 114 141 157 160 220 237 7 8 19 24 18 14 352 356 357 4 6 350 344 337 331 340 341 351 349 349 349 347 344 345 345 346 338 313 326 347 6 7 2 354 11 5 3 4 26 22 17 14 12 9 13 14 12 8 3 359 359 2 5 0 358 355 350 351 348 335 333 339 330 313 294 269 255 258 257
359 30 352 334 5 13 16 28 19 23 341 264 224 223 235 229 53 342 18 11 27 23 351 350 359 349 358 348 330 329 329 333 336 338 347 348 350 349 348 342 343 345 350 345 3 13 14 7 5 6 18 13 14 16 24 22 20 20 19 17 19 19 14 8 7 5 12 8 357 353 354 352 345 336 334 339 339 353 357 341 328 305 274 261 258
18 41 349 347 9 21 38 357 340 328 337 353 335 270 230 236 152 233 13 13 18 35 350 341 350 349 352 336 330 323 325 331 331 332 343 349 352 348 347 338 347 344 346 2 15 13 13 16 16 15 28 26 25 24 24 21 20 24 23 22 18 19 16 10 8 9 10 4 358 355 351 339 340 336 338 345 360 4 350 338 333 334 327 302 289
29 30 350 343 1 24 8 304 337 330 332 336 329 326 300 249 112 198 215 56 28 55 353 331 330 335 347 327 325 323 326 329 330 333 341 342 348 346 344 343 344 341 356 13 14 8 20 24 23 17 35 32 31 29 28 23 20 20 18 17 13 13 16 17 12 6 6 357 355 350 343 340 335 348 357 355 355 349 349 342 339 335 326 317 299
72 20 355 360 355 355 340 323 344 330 327 339 345 337 337 303 203 208 211 215 117 73 251 296 310 318 318 319 319 326 326 329 334 347 330 341 338 344 344 343 343 336 5 10 23 14 16 15 21 22 22 31 26 23 21 22 22 16 14 13 13 10 12 14 19 18 7 352 345 348 346 350 356 352 348 349 353 346 346 345 346 334 332 321 328
64 15 358 6 353 337 343 323 301 305 325 341 337 289 277 316 309 268 251 170 155 157 202 247 294 281 256 292 315 318 330 332 330 335 325 324 342 353 350 347 342 347 6 14 31 12 11 19 17 25 18 22 26 22 15 14 19 15 10 13 11 10 8 9 5 2 359 358 358 357 355 352 353 347 344 344 353 349 343 343 347 338 332 334 5
21 332 351 7 337 342 341 327 320 319 332 334 326 326 341 11 244 223 246 149 135 162 197 213 244 268 316 288 241 285 303 311 313 324 325 328 354 9 352 348 342 7 14 19 34 24 22 29 25 24 22 14 23 20 16 10 13 13 11 14 13 11 11 8 3 353 357 359 357 357 357 352 349 348 348 348 341 344 346 349 346 343 343 340 353
277 303 354 360 343 336 331 326 324 312 327 327 315 330 332 342 352 273 257 148 146 164 231 254 269 277 260 298 307 307 301 310 326 319 324 324 13 14 353 341 342 351 13 18 24 27 27 32 28 26 24 19 26 22 17 9 12 10 10 8 10 12 11 7 2 354 357 356 356 2 1 359 354 349 352 348 343 339 339 345 348 350 351 342 341
296 317 316 311 344 327 324 328 319 316 322 314 320 324 346 350 339 352 352 131 163 180 208 241 270 285 286 273 290 313 329 335 338 321 304 343 358 12 350 341 337 355 349 0 41 30 26 27 26 24 24 25 21 23 16 12 6 8 4 8 10 11 9 6 360 355 0 357 358 357 0 359 355 353 352 349 347 341 344 344 351 350 348 351 350
277 323 296 346 346 336 335 332 324 321 309 315 318 312 348 351 359 347 342 74 169 212 230 248 268 286 303 310 294 249 265 298 310 306 19 9 350 350 332 343 336 1 355 7 41 35 24 23 24 17 17 18 2 8 9 5 4 6 10 12 10 8 5 2 360 5 6 2 359 357 357 357 355 351 351 350 350 345 346 343 347 343 343 345 351
253 246 247 290 333 313 310 311 315 307 288 283 291 294 312 358 330 343 355 336 8 331 292 284 282 297 302 299 308 323 333 343 345 17 18 9 355 356 355 325 310 352 65 359 2 36 40 29 23 23 4 10 1 358 357 354 359 359 9 15 10 6 8 4 10 8 4 1 2 358 357 354 352 347 345 347 348 349 348 350 346 343 341 343 341
263 318 338 332 298 299 302 303 316 316 306 325 341 316 341 335 342 8 1 358 9 1 2 319 282 252 263 312 324 324 326 331 11 15 15 9 6 343 12 20 0 341 358 332 331 328 20 44 18 8 356 352 351 355 348 345 352 0 6 14 16 13 13 12 12 8 4 359 358 359 356 352 349 348 345 340 342 344 348 348 347 340 334 340 345
267 288 297 319 333 316 313 299 317 320 314 354 3 348 357 354 5 356 14 2 21 36 22 293 259 285 285 283 295 324 351 8 21 24 26 21 5 18 28 359 4 354 358 334 317 343 349 337 13 360 354 337 336 346 345 349 356 2 19 27 24 20 14 10 10 4 1 359 357 353 350 350 350 344 340 340 341 341 339 340 340 341 342 343 344
266 272 289 296 303 336 323 316 320 316 4 26 35 20 20 4 353 96 85 7 2 63 166 242 332 348 340 2 357 351 6 16 18 27 35 28 14 24 20 6 355 353 354 343 347 359 355 341 339 350 356 339 311 318 352 2 3 17 35 38 25 21 19 10 9 2 358 358 354 351 348 347 345 346 347 339 338 337 338 339 339 337 339 337 338
266 254 263 271 289 14 335 350 14 37 352 13 40 37 33 6 328 83 74 312 311 53 67 107 116 353 7 325 329 4 18 20 19 21 16 17 2 6 1 4 1 353 354 347 352 1 4 357 6 6 357 3 346 331 352 25 26 43 36 37 29 19 18 12 5 360 358 354 353 349 344 343 344 341 343 341 337 337 338 339 337 334 333 335 339
275 303 302 307 292 279 252 290 335 198 260 352 357 39 27 325 301 274 232 258 269 273 125 163 193 205 263 276 310 336 47 41 37 17 9 7 3 5 4 9 14 7 24 17 9 9 5 15 9 8 359 358 358 353 8 34 45 53 41 36 24 13 11 5 3 357 356 352 347 343 340 337 336 337 338 335 335 336 333 333 333 334 333 330 330
307 307 312 319 323 282 208 229 238 252 247 199 271 276 273 295 278 281 248 235 258 263 155 178 196 224 237 250 263 319 74 67 40 339 17 30 21 3 13 15 11 16 22 24 20 21 21 12 1 0 353 351 357 4 22 45 55 52 40 29 19 13 9 0 357 355 349 342 340 337 337 335 330 330 327 334 333 333 330 325 325 328 327 326 321
269 277 300 319 292 221 207 216 229 224 237 225 214 215 233 237 253 245 257 260 256 265 170 183 203 224 228 230 238 217 120 116 342 329 343 13 22 23 9 13 13 11 15 24 13 10 11 3 353 351 347 347 360 23 51 62 51 45 35 26 14 15 0 354 352 347 342 341 338 333 331 332 330 333 334 332 329 328 320 318 314 316 319 322 321
265 295 316 310 300 227 216 233 227 239 236 234 235 228 241 241 242 238 242 255 255 273 170 186 205 223 224 219 202 180 143 139 282 4 353 360 357 1 16 20 18 7 19 20 9 6 2 353 352 344 341 342 12 38 68 67 56 45 22 16 17 6 357 348 345 341 339 334 332 328 329 330 330 333 328 324 323 322 321 321 318 317 317 319 318
235 253 262 281 237 238 226 231 229 233 243 245 252 252 247 242 237 240 243 245 245 252 193 194 214 216 217 211 204 185 100 11 27 2 344 9 347 339 1 4 25 342 340 6 331 344 353 351 339 337 322 358 34 80 85 81 68 45 23 10 1 12 354 340 342 338 333 332 329 331 332 325 326 328 322 323 322 320 317 316 318 320 319 318 319
250 242 255 259 248 250 249 243 242 241 245 245 248 251 249 248 251 249 246 251 248 238 198 204 208 214 198 178 179 133 140 160 110 41 41 6 323 333 342 350 5 348 343 349 320 320 338 338 327 319 331 28 73 86 90 82 70 56 31 15 2 10 0 345 338 331 327 326 326 330 327 326 324 323 320 321 320 324 324 323 321 318 317 316 320
259 263 256 308 291 267 261 255 247 255 260 261 266 268 269 266 264 260 256 257 253 237 210 202 204 202 159 160 163 166 177 196 118 87 71 288 302 313 342 357 342 335 317 317 302 309 333 322 319 321 3 56 81 92 95 94 73 58 42 26 22 4 345 330 323 319 324 326 325 324 325 323 318 318 318 318 321 321 314 312 311 312 310 311 330
247 256 239 229 253 266 270 269 263 260 260 259 260 267 267 267 264 276 284 276 264 245 221 201 200 188 159 164 173 170 186 196 157 174 214 277 285 321 25 346 326 304 298 295 294 312 320 314 330 329 34 94 88 75 70 105 98 81 59 47 7 348 339 323 320 332 332 329 325 324 319 319 318 315 316 318 314 312 306 306 305 301 301 323 333
257 263 265 263 268 278 282 279 277 271 266 264 257 253 258 262 284 290 270 265 262 246 219 195 193 166 152 164 167 181 189 171 177 198 227 247 272 5 30 317 306 302 308 319 324 324 317 320 325 355 77 108 97 90 78 88 86 81 79 43 335 332 334 339 336 325 328 328 325 318 318 315 313 312 316 318 315 312 313 307 302 307 315 331 330
255 270 274 275 277 279 282 283 278 275 271 267 257 250 256 273 262 263 262 266 274 257 218 195 184 150 152 163 175 176 180 173 188 202 236 245 296 7 305 290 287 292 331 338 329 326 327 330 349 48 98 114 116 103 79 87 104 98 66 4 4 359 349 343 326 324 313 320 321 317 313 311 306 306 306 309 305 301 300 303 304 299 319 335 330
262 268 278 283 281 278 280 283 279 275 269 262 261 263 273 284 254 244 255 268 264 245 198 203 172 147 160 167 171 179 180 166 189 218 236 264 260 166 271 283 314 335 338 321 321 329 342 348 28 90 109 118 115 97 62 90 108 117 26 5 358 355 351 347 341 334 333 327 321 314 308 306 304 302 305 304 299 297 298 295 295 318 337 330 325
273 272 272 275 283 283 283 283 289 293 275 252 246 255 261 240 244 252 263 261 252 256 257 229 155 156 162 161 165 180 175 178 193 212 233 242 228 210 253 344 340 321 315 317 327 348 0 15 56 111 124 122 107 87 49 43 105 87 22 1 358 358 352 348 344 344 341 328 319 302 302 295 295 297 296 295 298 307 317 328 334 328 326 321 318
264 273 278 280 280 282 288 292 290 272 247 245 250 259 255 240 240 253 259 258 267 262 260 193 149 152 157 168 173 177 182 184 187 196 205 215 224 221 115 322 316 318 327 336 0 8 16 20 62 99 98 95 88 79 62 46 62 26 1 4 7 3 352 348 345 338 333 330 316 311 304 307 303 304 325 335 331 328 333 332 327 324 317 315 317